GSAT-7A

Last updated on Thu Jul 03 2025 00:02:48 GMT+0000 (Coordinated Universal Time)

1 43864U 18105A 25183.60600336 .00000034 00000+0 00000+0 0 9998 2 43864 0.0551 107.3707 0002130 340.4878 113.9643 1.00272621 23949
UTC large
Height (km)
Speed (km/s)
/
Latitude / Longitude
Inclination (degrees)
Orbital Period (minutes)
Azimuth
Elevation
Range (km)
Doppler Factor

Next 0 passes for location: London (51.5072 / 0.1276)

Sorry there are no passes over London.